Location: Shepherdstown, WV
(39.4326°N, 77.8042°W)
Time: 10:24:22
(UTC-04:00)

S-56A Canister/Altair - Pass Details

Date: 31 July 2021
Orbit: 632 x 2500 km, 38.9° (Epoch: 18 September)

Event Time Altitude Azimuth Distance (km) Brightness Sun altitude
Rises 21:42:43 0° 288° (WNW) 6,182 13.6 -13.8°
Reaches altitude 10° 21:46:59 10° 284° (WNW) 5,137 12.8 -14.4°
Maximum altitude 22:00:52 52° 215° (SW) 2,557 10.1 -16.5°
Enters shadow 22:08:46 21° 150° (SSE) 3,343 10.2 -17.6°
